Location: Unspecified
(35.6961°N, 0.0000°E)
Time: 09:06:12
(UTC+00:00)

S-56A Canister/Altair - Pass Details

Date: 31 May 2019
Orbit: 633 x 2499 km, 38.9° (Epoch: 23 June)

Event Time Altitude Azimuth Distance (km) Brightness Sun altitude
Rises 06:10:40 0° 281° (W) 4,325 10.8 15.1°
Reaches altitude 10° 06:13:50 10° 268° (W) 3,620 10.4 15.7°
Maximum altitude 06:21:24 27° 216° (SW) 3,082 10.3 17.2°
Drops below altitude 10° 06:31:16 10° 167° (SSE) 4,783 11.6 19.1°
Sets 06:36:20 0° 157° (SSE) 5,990 12.2 20.1°
